Location: De Greiden
(52.9496°N, 5.9137°E)
Time: 23:57:11
(UTC+00:00)

Cosmos 1627 Rocket - Pass Details

Date: 24 January 2021
Orbit: 951 x 1003 km, 82.9° (Epoch: 01 March)

Event Time Altitude Azimuth Distance (km) Brightness Sun altitude
Rises 18:21:48 0° 184° (S) 3,640 7.6 -20.0°
Reaches altitude 10° 18:24:17 10° 183° (S) 2,704 6.9 -20.4°
Maximum altitude 18:30:28 81° 98° (E) 997 4.4 -21.3°
Drops below altitude 10° 18:36:49 10° 12° (NNE) 2,759 6.7 -22.3°
Sets 18:39:21 0° 12° (NNE) 3,719 7.4 -22.7°
